When you browse on this site, cookies collect data to enhance your experience and personalize the content and advertising you see.
Visit our Privacy Policy to learn more. By continuing to use the site, you agree to this use of cookies and data.
  • en France
  • Liste des pays
  • À 7 jours
  • Température de l'eau
  • Carte satellitaire
  • Carte météo
  • Widgets météo
  • user-avatar
    Se connecter

    Météo par heure à Lyon

    Ce jour, 22 Mai, Mercredi

    Heure Température Précipitation Vent Pression Humidité
    00:00 +12°C° 0 mm 2 m/s 748 mmHg 92%
    01:00 +12°C° 0 mm 2 m/s 748 mmHg 92%
    02:00 +10°C° 0 mm 2 m/s 748 mmHg 93%
    03:00 +10°C° 0 mm 2 m/s 748 mmHg 94%
    04:00 +10°C° 0 mm 2 m/s 748 mmHg 92%
    05:00 +12°C° 0 mm 2 m/s 748 mmHg 91%
    06:00 +12°C° 0 mm 3 m/s 748 mmHg 89%
    07:00 +13°C° 0 mm 3 m/s 748 mmHg 82%
    08:00 +16°C° 0 mm 3 m/s 748 mmHg 76%
    09:00 +18°C° 0 mm 4 m/s 748 mmHg 69%
    10:00 +19°C° 0 mm 4 m/s 748 mmHg 62%
    11:00 +20°C° 0 mm 4 m/s 748 mmHg 56%
    12:00 +22°C° 0 mm 4 m/s 748 mmHg 49%
    13:00 +22°C° 0 mm 4 m/s 748 mmHg 47%
    14:00 +22°C° 0 mm 4 m/s 747 mmHg 46%
    15:00 +22°C° 0 mm 4 m/s 747 mmHg 44%
    16:00 +21°C° 0 mm 4 m/s 747 mmHg 48%
    17:00 +20°C° 0 mm 4 m/s 747 mmHg 52%
    18:00 +18°C° 0 mm 3 m/s 748 mmHg 56%
    19:00 +17°C° 0 mm 3 m/s 748 mmHg 63%
    20:00 +14°C° 0 mm 3 m/s 749 mmHg 70%
    21:00 +13°C° 0 mm 2 m/s 749 mmHg 76%
    22:00 +12°C° 0 mm 2 m/s 749 mmHg 80%
    23:00 +12°C° 0 mm 2 m/s 749 mmHg 83%

    Demain, 23 Mai, Jeudi

    Heure Température Précipitation Vent Pression Humidité
    00:00 +10°C° 0 mm 2 m/s 749 mmHg 87%
    01:00 +10°C° 0 mm 1 m/s 749 mmHg 88%
    02:00 +10°C° 0 mm 1 m/s 749 mmHg 89%
    03:00 +9°C° 0 mm 1 m/s 749 mmHg 90%
    04:00 +10°C° 0 mm 1 m/s 749 mmHg 86%
    05:00 +11°C° 0 mm 1 m/s 749 mmHg 83%
    06:00 +12°C° 0 mm 1 m/s 749 mmHg 80%
    07:00 +14°C° 0 mm 1 m/s 748 mmHg 73%
    08:00 +16°C° 0 mm 1 m/s 748 mmHg 66%
    09:00 +18°C° 0 mm 2 m/s 748 mmHg 59%
    10:00 +20°C° 0 mm 2 m/s 748 mmHg 53%
    11:00 +21°C° 0 mm 2 m/s 748 mmHg 48%
    12:00 +24°C° 0 mm 2 m/s 747 mmHg 42%
    13:00 +24°C° 0 mm 2 m/s 747 mmHg 41%
    14:00 +25°C° 0 mm 2 m/s 747 mmHg 40%
    15:00 +25°C° 0 mm 2 m/s 746 mmHg 40%
    16:00 +24°C° 0 mm 2 m/s 746 mmHg 46%
    17:00 +23°C° 0 mm 2 m/s 746 mmHg 52%
    18:00 +21°C° 0 mm 2 m/s 746 mmHg 58%
    19:00 +19°C° 0 mm 2 m/s 747 mmHg 66%
    20:00 +18°C° 0 mm 1 m/s 747 mmHg 73%
    21:00 +15°C° 0 mm 1 m/s 747 mmHg 80%
    22:00 +15°C° 0 mm 1 m/s 747 mmHg 82%
    23:00 +14°C° 0 mm 1 m/s 747 mmHg 83%

    Après-demain, 24 Mai, Vendredi

    Heure Température Précipitation Vent Pression Humidité
    00:00 +13°C° 0 mm 1 m/s 747 mmHg 84%
    01:00 +13°C° 0 mm 1 m/s 747 mmHg 85%
    02:00 +12°C° 0 mm 0 m/s 747 mmHg 86%
    03:00 +11°C° 0 mm 0 m/s 747 mmHg 87%
    04:00 +12°C° 0 mm 0 m/s 747 mmHg 85%
    05:00 +13°C° 0 mm 0 m/s 747 mmHg 83%
    06:00 +14°C° 0 mm 0 m/s 747 mmHg 81%
    07:00 +18°C° 0 mm 1 m/s 746 mmHg 75%
    08:00 +20°C° 0 mm 1 m/s 746 mmHg 69%
    09:00 +21°C° 0 mm 2 m/s 746 mmHg 63%
    10:00 +23°C° 0 mm 2 m/s 746 mmHg 57%
    11:00 +24°C° 0 mm 2 m/s 746 mmHg 51%
    12:00 +26°C° 0 mm 3 m/s 746 mmHg 45%
    13:00 +26°C° 0 mm 3 m/s 745 mmHg 44%
    14:00 +26°C° 0 mm 3 m/s 745 mmHg 44%
    15:00 +26°C° 0 mm 3 m/s 745 mmHg 43%
    16:00 +25°C° 0 mm 3 m/s 745 mmHg 48%
    17:00 +24°C° 0 mm 3 m/s 745 mmHg 54%
    18:00 +22°C° 0 mm 3 m/s 745 mmHg 59%
    19:00 +20°C° 0 mm 3 m/s 745 mmHg 67%
    20:00 +19°C° 0 mm 3 m/s 746 mmHg 74%
    21:00 +17°C° 0 mm 3 m/s 746 mmHg 82%
    22:00 +16°C° 0 mm 2 m/s 746 mmHg 85%
    23:00 +16°C° 0 mm 2 m/s 746 mmHg 88%

    25 Mai, Samedi

    Heure Température Précipitation Vent Pression Humidité
    00:00 +15°C° 0 mm 2 m/s 746 mmHg 91%
    01:00 +14°C° 0 mm 2 m/s 746 mmHg 92%
    02:00 +14°C° 0 mm 2 m/s 746 mmHg 93%
    03:00 +14°C° 0 mm 2 m/s 746 mmHg 93%
    04:00 +14°C° 0 mm 2 m/s 746 mmHg 91%
    05:00 +15°C° 0 mm 2 m/s 746 mmHg 90%
    06:00 +15°C° 0 mm 2 m/s 746 mmHg 88%
    07:00 +17°C° 0 mm 3 m/s 747 mmHg 82%
    08:00 +18°C° 0 mm 3 m/s 747 mmHg 76%
    09:00 +20°C° 0 mm 3 m/s 747 mmHg 70%
    10:00 +21°C° 0.1 mm 4 m/s 747 mmHg 66%
    11:00 +22°C° 0.1 mm 4 m/s 747 mmHg 62%
    12:00 +22°C° 0.1 mm 4 m/s 747 mmHg 59%
    13:00 +23°C° 0.2 mm 4 m/s 747 mmHg 59%
    14:00 +23°C° 0.2 mm 4 m/s 746 mmHg 59%
    15:00 +23°C° 0.2 mm 4 m/s 746 mmHg 59%
    16:00 +22°C° 0.2 mm 4 m/s 746 mmHg 64%
    17:00 +21°C° 0.2 mm 4 m/s 747 mmHg 68%
    18:00 +20°C° 0.2 mm 4 m/s 747 mmHg 73%
    19:00 +19°C° 0 mm 3 m/s 747 mmHg 78%
    20:00 +17°C° 0 mm 3 m/s 748 mmHg 83%
    21:00 +16°C° 0 mm 3 m/s 748 mmHg 88%
    22:00 +15°C° 0 mm 2 m/s 748 mmHg 89%
    23:00 +15°C° 0 mm 2 m/s 748 mmHg 91%

    26 Mai, Dimanche

    Heure Température Précipitation Vent Pression Humidité
    00:00 +14°C° 0 mm 2 m/s 748 mmHg 92%
    01:00 +14°C° 0 mm 2 m/s 748 mmHg 92%
    02:00 +14°C° 0 mm 2 m/s 748 mmHg 93%
    03:00 +13°C° 0 mm 2 m/s 748 mmHg 93%
    04:00 +14°C° 0 mm 2 m/s 748 mmHg 92%
    05:00 +14°C° 0 mm 2 m/s 748 mmHg 90%
    06:00 +15°C° 0 mm 2 m/s 748 mmHg 88%
    07:00 +17°C° 0 mm 3 m/s 748 mmHg 82%
    08:00 +18°C° 0 mm 3 m/s 748 mmHg 76%
    09:00 +19°C° 0 mm 3 m/s 749 mmHg 70%
    10:00 +20°C° 0 mm 4 m/s 748 mmHg 66%
    11:00 +21°C° 0 mm 4 m/s 748 mmHg 61%
    12:00 +22°C° 0 mm 4 m/s 748 mmHg 57%
    13:00 +23°C° 0 mm 4 m/s 748 mmHg 54%
    14:00 +23°C° 0 mm 4 m/s 747 mmHg 51%
    15:00 +25°C° 0 mm 4 m/s 747 mmHg 48%
    16:00 +23°C° 0 mm 4 m/s 747 mmHg 52%
    17:00 +22°C° 0 mm 3 m/s 747 mmHg 55%
    18:00 +21°C° 0 mm 3 m/s 747 mmHg 58%
    19:00 +19°C° 0 mm 3 m/s 747 mmHg 63%
    20:00 +18°C° 0 mm 2 m/s 748 mmHg 68%
    21:00 +16°C° 0 mm 2 m/s 748 mmHg 73%
    22:00 +16°C° 0 mm 2 m/s 748 mmHg 78%
    23:00 +15°C° 0 mm 2 m/s 748 mmHg 82%

    27 Mai, Lundi

    Heure Température Précipitation Vent Pression Humidité
    00:00 +15°C° 0 mm 1 m/s 748 mmHg 86%
    01:00 +15°C° 0 mm 1 m/s 748 mmHg 88%
    02:00 +15°C° 0 mm 1 m/s 748 mmHg 90%
    03:00 +15°C° 0 mm 1 m/s 747 mmHg 92%
    04:00 +15°C° 0 mm 1 m/s 747 mmHg 91%
    05:00 +16°C° 0 mm 1 m/s 747 mmHg 90%
    06:00 +16°C° 0 mm 1 m/s 747 mmHg 89%
    07:00 +17°C° 0 mm 2 m/s 747 mmHg 86%
    08:00 +18°C° 0 mm 2 m/s 747 mmHg 84%
    09:00 +19°C° 0 mm 3 m/s 747 mmHg 81%
    10:00 +20°C° 0.1 mm 3 m/s 747 mmHg 74%
    11:00 +22°C° 0.1 mm 4 m/s 747 mmHg 66%
    12:00 +25°C° 0.1 mm 4 m/s 747 mmHg 59%
    13:00 +25°C° 0 mm 4 m/s 746 mmHg 57%
    14:00 +25°C° 0 mm 4 m/s 746 mmHg 56%
    15:00 +26°C° 0 mm 4 m/s 745 mmHg 54%
    16:00 +25°C° 0 mm 3 m/s 745 mmHg 57%
    17:00 +24°C° 0 mm 3 m/s 745 mmHg 61%
    18:00 +24°C° 0 mm 2 m/s 745 mmHg 64%
    19:00 +21°C° 0 mm 2 m/s 746 mmHg 70%
    20:00 +19°C° 0 mm 2 m/s 746 mmHg 76%
    21:00 +18°C° 0 mm 2 m/s 746 mmHg 82%
    22:00 +17°C° 0 mm 2 m/s 746 mmHg 85%
    23:00 +16°C° 0 mm 2 m/s 746 mmHg 88%
    Voir plus